Preview of NWS' New Version of Forecast
This preview is not operational and should not be used for support decisions.

Regional Weather Roundup (RWR)

Issued by National Weather Service (NWS)

                            
000
ASUS43 KLSX 211757
RWRMO 

WEATHER SUMMARY FOR MISSOURI
NATIONAL WEATHER SERVICE SPRINGFIELD MO
100 PM CDT SUN JUL 21 2019

NOTE: "FAIR" INDICATES FEW OR NO CLOUDS BELOW 12,000 FEET WITH NO
       SIGNIFICANT WEATHER AND/OR OBSTRUCTIONS TO VISIBILITY.
       CURRENT SKY AND/OR WEATHER CONDITIONS ARE NOT AVAILABLE FOR
       CHILLICOTHE AND FARMINGTON.

MOZ001>031-035>038-043-044-053-054-211900-
...NORTHERN AND WESTERN MISSOURI...
  
CITY           SKY/WX    TMP DP  RH WIND       PRES   REMARKS
KANSAS CTY INT PTSUNNY   81  71  71 NE16      30.01S                  
6HR MIN TEMP:  70; 6HR MAX TEMP:  82; 6HR PCP:  0.04;                

LEE'S SUMMIT   CLOUDY    78  70  76 E12       30.01S                  
6HR MIN TEMP:  70; 6HR MAX TEMP:  80; 6HR PCP:  0.02;                

ST JOSEPH      PTSUNNY   78  68  71 NE10      30.01F                  
6HR MIN TEMP:  71; 6HR MAX TEMP:  81; 6HR PCP:  0.17;                

CHILLICOTHE      N/A     81  71  71 CALM      30.02F                  
6HR MIN TEMP:  72; 6HR MAX TEMP:  81;                                

     
$$
MOZ066>068-077>081-088>096-101>105-211900-
...SOUTHWEST MISSOURI...
  
CITY           SKY/WX    TMP DP  RH WIND       PRES   REMARKS
SPRINGFIELD    MOSUNNY   89  72  56 SE5       29.97F HX  96           
6HR MIN TEMP:  74; 6HR MAX TEMP:  89;                                

JOPLIN         SUNNY     91  73  55 S8        29.95F HX  99           
6HR MIN TEMP:  74; 6HR MAX TEMP:  91;                                

BRANSON        MOSUNNY   90  70  51 CALM      30.01S HX  95           
               
$$
MOZ032>034-039>042-045>050-055>058-069>072-211900-
...CENTRAL MISSOURI...  
  
CITY           SKY/WX    TMP DP  RH WIND       PRES   REMARKS
COLUMBIA       NOT AVBL                                               
ROLLA          SUNNY     85  70  60 N6        30.01S                  
6HR MIN TEMP:  71; 6HR MAX TEMP:  87;                                

SEDALIA        PTSUNNY   79  71  76 E8        30.01S                  
6HR MIN TEMP:  68; 6HR MAX TEMP:  79; 6HR PCP:  0.04;                

               
$$
MOZ051-052-059>065-211900-
...EAST CENTRAL MISSOURI...
  
CITY           SKY/WX    TMP DP  RH WIND       PRES   REMARKS
ST LOUIS INTL  MOSUNNY   90  72  55 NW10      29.95F HX  97           
6HR MIN TEMP:  79; 6HR MAX TEMP:  90;                                

                   
$$
MOZ072>076-082>087-097>100-106>115-211900-
...SOUTH CENTRAL AND SOUTHEAST MISSOURI...
  
CITY           SKY/WX    TMP DP  RH WIND       PRES   REMARKS
CAPE GIRARDEAU HVY RAIN  84  76  76 E12       29.95S HX  93           
6HR MIN TEMP:  78; 6HR MAX TEMP:  91; 6HR PCP:  0.08;                

POPLAR BLUFF   LGT RAIN  87  78  74 S9        29.95F HX 100           
6HR MIN TEMP:  78; 6HR MAX TEMP:  90; 6HR PCP: TRACE;                

WEST PLAINS    SUNNY     89  74  60 CALM      30.01F HX  98           
6HR MIN TEMP:  74; 6HR MAX TEMP:  89;                                

                                       
$$